When you browse on this site, cookies collect data to enhance your experience and personalize the content and advertising you see.
Visit our Privacy Policy to learn more. By continuing to use the site, you agree to this use of cookies and data.
  • In United Kingdom
  • List of Countries
  • For 7 days
  • Water Temperature
  • Weather Map
  • Weather Widgets
  • user-avatar
    Login

    Hourly Weather Wigston Magna

    Today, 23 February, Sunday

    Time Temperature Precipitation Wind Pressure Humidity
    00:00 +5°C° 0 mm 6 mps 754 mmHg 82%
    01:00 +5°C° 1.1 mm 6 mps 753 mmHg 86%
    02:00 +5°C° 1.1 mm 6 mps 751 mmHg 90%
    03:00 +5°C° 1.1 mm 6 mps 749 mmHg 94%
    04:00 +7°C° 1.1 mm 8 mps 748 mmHg 92%
    05:00 +9°C° 1.1 mm 10 mps 747 mmHg 89%
    06:00 +11°C° 0 mm 8 mps 746 mmHg 88%
    07:00 +10°C° 0.7 mm 9 mps 746 mmHg 88%
    08:00 +10°C° 0.7 mm 9 mps 747 mmHg 88%
    09:00 +10°C° 0.7 mm 9 mps 747 mmHg 87%
    10:00 +9°C° 0.1 mm 10 mps 748 mmHg 83%
    11:00 +8°C° 0.1 mm 10 mps 750 mmHg 78%
    12:00 +7°C° 0.1 mm 11 mps 751 mmHg 74%
    13:00 +6°C° 0 mm 10 mps 752 mmHg 71%
    14:00 +6°C° 0 mm 9 mps 753 mmHg 68%
    15:00 +5°C° 0 mm 8 mps 754 mmHg 65%
    16:00 +4°C° 0 mm 7 mps 755 mmHg 66%
    17:00 +3°C° 0 mm 5 mps 756 mmHg 68%
    18:00 +3°C° 0 mm 4 mps 758 mmHg 69%
    19:00 +3°C° 0 mm 4 mps 758 mmHg 70%
    20:00 +3°C° 0 mm 3 mps 758 mmHg 72%
    21:00 +3°C° 0 mm 3 mps 759 mmHg 73%
    22:00 +3°C° 0 mm 3 mps 758 mmHg 75%
    23:00 +4°C° 0 mm 2 mps 758 mmHg 76%

    Tomorrow, 24 February, Monday

    Time Temperature Precipitation Wind Pressure Humidity
    00:00 +4°C° 0 mm 2 mps 758 mmHg 77%
    01:00 +3°C° 0.1 mm 3 mps 757 mmHg 80%
    02:00 +3°C° 0.1 mm 4 mps 756 mmHg 82%
    03:00 +1°C° 0.1 mm 5 mps 755 mmHg 84%
    04:00 +2°C° 0 mm 5 mps 753 mmHg 87%
    05:00 +3°C° 0 mm 6 mps 751 mmHg 90%
    06:00 +4°C° 0 mm 7 mps 750 mmHg 93%
    07:00 +5°C° 0.7 mm 8 mps 748 mmHg 92%
    08:00 +6°C° 0.7 mm 9 mps 747 mmHg 91%
    09:00 +7°C° 0.7 mm 10 mps 745 mmHg 90%
    10:00 +8°C° 0.5 mm 10 mps 745 mmHg 89%
    11:00 +8°C° 0.5 mm 10 mps 744 mmHg 88%
    12:00 +9°C° 0.5 mm 10 mps 743 mmHg 87%
    13:00 +9°C° 0.1 mm 10 mps 743 mmHg 85%
    14:00 +8°C° 0.1 mm 10 mps 742 mmHg 82%
    15:00 +8°C° 0.1 mm 10 mps 742 mmHg 79%
    16:00 +7°C° 0 mm 10 mps 742 mmHg 78%
    17:00 +6°C° 0 mm 9 mps 743 mmHg 76%
    18:00 +5°C° 0 mm 9 mps 743 mmHg 75%
    19:00 +3°C° 0 mm 9 mps 743 mmHg 77%
    20:00 +2°C° 0 mm 8 mps 744 mmHg 79%
    21:00 +1°C° 0 mm 8 mps 744 mmHg 81%
    22:00 +1°C° 0 mm 8 mps 744 mmHg 80%
    23:00 0°C° 0 mm 8 mps 744 mmHg 78%

    Day after tomorrow, 25 February, Tuesday

    Time Temperature Precipitation Wind Pressure Humidity
    00:00 0°C° 0 mm 8 mps 744 mmHg 76%
    01:00 0°C° 0 mm 8 mps 744 mmHg 78%
    02:00 0°C° 0 mm 8 mps 743 mmHg 80%
    03:00 0°C° 0 mm 8 mps 743 mmHg 81%
    04:00 0°C° 0 mm 8 mps 743 mmHg 81%
    05:00 0°C° 0 mm 7 mps 743 mmHg 80%
    06:00 -1°C° 0 mm 7 mps 743 mmHg 79%
    07:00 0°C° 0 mm 7 mps 743 mmHg 77%
    08:00 0°C° 0 mm 8 mps 743 mmHg 76%
    09:00 +1°C° 0 mm 8 mps 743 mmHg 74%
    10:00 +2°C° 0 mm 8 mps 742 mmHg 70%
    11:00 +2°C° 0 mm 8 mps 742 mmHg 66%
    12:00 +4°C° 0 mm 8 mps 742 mmHg 62%
    13:00 +4°C° 0.1 mm 8 mps 742 mmHg 63%
    14:00 +4°C° 0.1 mm 8 mps 741 mmHg 63%
    15:00 +4°C° 0.1 mm 7 mps 740 mmHg 64%
    16:00 +3°C° 0.2 mm 7 mps 739 mmHg 70%
    17:00 +2°C° 0.2 mm 7 mps 738 mmHg 76%
    18:00 +1°C° 0.2 mm 6 mps 738 mmHg 83%
    19:00 0°C° 0.4 mm 7 mps 737 mmHg 83%
    20:00 -1°C° 0.4 mm 8 mps 737 mmHg 83%
    21:00 -1°C° 0.4 mm 9 mps 737 mmHg 84%
    22:00 -3°C° 0 mm 9 mps 737 mmHg 82%
    23:00 -2°C° 0 mm 8 mps 737 mmHg 80%

    26 February, Wednesday

    Time Temperature Precipitation Wind Pressure Humidity
    00:00 -2°C° 0 mm 8 mps 737 mmHg 78%
    01:00 -2°C° 0 mm 8 mps 738 mmHg 80%
    02:00 -2°C° 0 mm 8 mps 738 mmHg 81%
    03:00 -2°C° 0 mm 8 mps 738 mmHg 83%
    04:00 -2°C° 0 mm 8 mps 739 mmHg 82%
    05:00 -2°C° 0 mm 8 mps 740 mmHg 82%
    06:00 -2°C° 0 mm 7 mps 740 mmHg 81%
    07:00 -2°C° 0 mm 7 mps 741 mmHg 79%
    08:00 -1°C° 0 mm 7 mps 742 mmHg 77%
    09:00 0°C° 0 mm 7 mps 743 mmHg 75%
    10:00 +2°C° 0.1 mm 7 mps 743 mmHg 72%
    11:00 +2°C° 0.1 mm 8 mps 744 mmHg 70%
    12:00 +3°C° 0.1 mm 9 mps 745 mmHg 67%
    13:00 +2°C° 0.2 mm 8 mps 746 mmHg 66%
    14:00 +2°C° 0.2 mm 8 mps 746 mmHg 65%
    15:00 +3°C° 0.2 mm 7 mps 746 mmHg 64%
    16:00 +2°C° 0 mm 6 mps 747 mmHg 68%
    17:00 +1°C° 0 mm 5 mps 747 mmHg 71%
    18:00 0°C° 0 mm 4 mps 747 mmHg 75%
    19:00 0°C° 0 mm 4 mps 748 mmHg 76%
    20:00 -1°C° 0 mm 4 mps 748 mmHg 78%
    21:00 0°C° 0 mm 3 mps 748 mmHg 79%
    22:00 -1°C° 0 mm 4 mps 747 mmHg 80%
    23:00 -1°C° 0 mm 4 mps 747 mmHg 82%

    27 February, Thursday

    Time Temperature Precipitation Wind Pressure Humidity
    00:00 -1°C° 0 mm 4 mps 746 mmHg 83%
    01:00 -1°C° 0 mm 4 mps 745 mmHg 84%
    02:00 0°C° 0 mm 4 mps 744 mmHg 85%
    03:00 0°C° 0 mm 4 mps 743 mmHg 86%
    04:00 0°C° 0.8 mm 5 mps 741 mmHg 90%
    05:00 0°C° 0.8 mm 5 mps 740 mmHg 93%
    06:00 0°C° 0.8 mm 5 mps 738 mmHg 97%
    07:00 0°C° 1.9 mm 5 mps 736 mmHg 97%
    08:00 -1°C° 1.9 mm 6 mps 735 mmHg 97%
    09:00 -1°C° 1.9 mm 6 mps 733 mmHg 97%
    10:00 0°C° 0.5 mm 5 mps 733 mmHg 97%
    11:00 0°C° 0.5 mm 4 mps 733 mmHg 97%
    12:00 0°C° 0.5 mm 4 mps 733 mmHg 97%
    13:00 0°C° 0 mm 5 mps 734 mmHg 95%
    14:00 0°C° 0 mm 7 mps 735 mmHg 92%
    15:00 0°C° 0 mm 8 mps 736 mmHg 89%
    16:00 0°C° 0 mm 7 mps 737 mmHg 89%
    17:00 -1°C° 0 mm 7 mps 739 mmHg 88%
    18:00 -1°C° 0 mm 6 mps 740 mmHg 87%
    19:00 0°C° 0 mm 5 mps 741 mmHg 88%
    20:00 -1°C° 0 mm 5 mps 741 mmHg 89%
    21:00 -1°C° 0 mm 4 mps 742 mmHg 91%
    22:00 -1°C° 0 mm 4 mps 742 mmHg 91%
    23:00 -2°C° 0 mm 4 mps 742 mmHg 92%

    28 February, Friday

    Time Temperature Precipitation Wind Pressure Humidity
    00:00 -2°C° 0 mm 4 mps 742 mmHg 93%
    01:00 -1°C° 0.3 mm 4 mps 742 mmHg 93%
    02:00 0°C° 0.3 mm 4 mps 741 mmHg 94%
    03:00 0°C° 0.3 mm 4 mps 741 mmHg 95%
    04:00 0°C° 0 mm 4 mps 741 mmHg 95%
    05:00 +1°C° 0 mm 3 mps 741 mmHg 94%
    06:00 0°C° 0 mm 3 mps 741 mmHg 94%
    07:00 +1°C° 0 mm 3 mps 740 mmHg 91%
    08:00 +1°C° 0 mm 3 mps 740 mmHg 88%
    09:00 +2°C° 0 mm 3 mps 740 mmHg 85%
    10:00 +3°C° 0 mm 3 mps 740 mmHg 81%
    11:00 +4°C° 0 mm 3 mps 740 mmHg 77%
    12:00 +5°C° 0 mm 3 mps 739 mmHg 73%
    13:00 +5°C° 0 mm 3 mps 739 mmHg 74%
    14:00 +5°C° 0 mm 3 mps 738 mmHg 76%
    15:00 +5°C° 0 mm 3 mps 737 mmHg 77%
    16:00 +4°C° 0.1 mm 3 mps 736 mmHg 83%
    17:00 +3°C° 0.1 mm 3 mps 735 mmHg 88%
    18:00 +3°C° 0.1 mm 2 mps 735 mmHg 93%
    19:00 +3°C° 0 mm 2 mps 734 mmHg 94%
    20:00 +2°C° 0 mm 2 mps 733 mmHg 95%
    21:00 +2°C° 0 mm 2 mps 732 mmHg 96%
    22:00 +1°C° 0.4 mm 3 mps 732 mmHg 96%
    23:00 +1°C° 0.4 mm 3 mps 731 mmHg 97%
    Show more